{"data":{"norad_id":67619,"epoch":"2026-05-25T03:25:59.695392Z","epoch_age_seconds":65925,"freshness":"FRESH","line1":"1 67619U 26020C   26145.14305203  .00020045  00000+0  73550-3 0  9998","line2":"2 67619  43.0002  68.2344 0001327 274.7946  85.2754 15.27600785 17807","mean_motion":15.27600785,"eccentricity":0.0001327,"inclination_deg":43.0002,"raan_deg":68.2344,"arg_perigee_deg":274.7946,"mean_anomaly_deg":85.2754,"bstar":0.0007355,"rev_number":1780,"period_min":94.265466091653,"perigee_km":482.07638784189,"apogee_km":483.89733011406,"semimajor_km":6861.123858978,"source":"CELESTRAK","updated_at":"2026-05-25T13:38:21.649194Z"}}